Location: Cella
(44.7333°N, 10.5667°E)
Time: 00:18:58
(UTC+00:00)

COSMOS 1867 COOLANT - Pass Details

Date: 27 September 2021
Orbit: 770 x 802 km, 65.0° (Epoch: 21 October)

Event Time Altitude Azimuth Distance (km) Brightness Sun altitude
Rises 20:15:17 0° 324° (NW) 3,320 ? -32.7°
Reaches altitude 10° 20:17:43 10° 323° (NW) 2,385 ? -33.1°
Enters shadow 20:21:21 43° 317° (NW) 1,119 ? -33.6°
